Weather History for Wheeler AAF, HI

Change the Weather History Date:

Wednesday, July 10, 2013

  Actual Average Record
Temperature  
Mean Temperature 76 °F -  
Max Temperature 80 °F 79 °F 84 °F (2008)
Min Temperature 71 °F 67 °F 64 °F (2000)
Cooling Degree Days 10    
Growing Degree Days 26 (Base 50)    
Moisture  
Dew Point 67 °F    
Average Humidity 79    
Maximum Humidity 88    
Minimum Humidity 56    
Precipitation  
Precipitation 0.03 in - - ()
Sea Level Pressure  
Sea Level Pressure 30.13 in    
Wind  
Wind Speed 8 mph (ENE)    
Max Wind Speed 16 mph    
Max Gust Speed 25 mph    
Visibility 10 miles    
Events Rain    
Averages and records for this station are not official NWS values.
T = Trace of Precipitation, MM = Missing Value Source: NWS Daily Summary

Daily Weather History Graph

Daily Weather History Graph

Search for Another Location

Airport:

Trip Planner

Search our weather history database for the weather conditions in past years. The results will help you decide how hot, cold, wet, or windy it might be!

Date:

Astronomy

Jul. 10, 2013 Rise Set
Actual Time 5:56 AM HST 7:18 PM HST
Civil Twilight 5:32 AM HST 7:42 PM HST
Nautical Twilight 5:02 AM HST 8:12 PM HST
Astronomical Twilight 4:32 AM HST 8:42 PM HST
Moon 8:05 AM HST (7/10) 9:00 PM HST (7/10)
Length of Visible Light 14h 10m
Length of Day
13h 21m
Waxing Crescent, 6% of the Moon is Illuminated
Jul 10
Waxing Crescent
Jul 15
First Quarter
Jul 22
Full
Jul 29
Last Quarter
Aug 6
New

Hourly Weather History & Observations

Time (HST) Temp. Heat Index Dew Point Humidity Pressure Visibility Wind Dir Wind Speed Gust Speed Precip Events Conditions
12:55 AM 74.7 °F - 65.3 °F 73% 30.12 in 10.0 mi ENE 15.0 mph - N/A   Mostly Cloudy
1:55 AM 74.5 °F - 65.1 °F 72% 30.11 in 10.0 mi Variable 4.6 mph - N/A   Mostly Cloudy
2:23 AM 73.4 °F - 66.2 °F 78% 30.11 in 10.0 mi Variable 3.5 mph - N/A Rain Light Rain
2:55 AM 72.0 °F - 67.6 °F 86% 30.11 in 10.0 mi NE 4.6 mph - 0.00 in   Light Drizzle
3:15 AM 71.6 °F - 68.0 °F 88% 30.11 in 10.0 mi Calm Calm - N/A   Partly Cloudy
3:22 AM 71.6 °F - 68.0 °F 88% 30.11 in 10.0 mi Variable 3.5 mph - N/A   Light Drizzle
3:50 AM 71.6 °F - 66.2 °F 83% 30.10 in 10.0 mi Calm Calm - N/A   Partly Cloudy
3:55 AM 72.0 °F - 66.7 °F 84% 30.10 in 10.0 mi Variable 4.6 mph - 0.00 in   Partly Cloudy
4:04 AM 71.6 °F - 66.2 °F 83% 30.11 in 10.0 mi Calm Calm - N/A   Light Drizzle
4:26 AM 71.6 °F - 66.2 °F 83% 30.10 in 10.0 mi ENE 9.2 mph - N/A   Clear
4:44 AM 73.4 °F - 66.2 °F 78% 30.11 in 10.0 mi ENE 9.2 mph - N/A   Light Drizzle
4:55 AM 72.5 °F - 66.6 °F 82% 30.11 in 10.0 mi ENE 8.1 mph - 0.00 in Rain Light Rain
5:04 AM 71.6 °F - 66.2 °F 83% 30.10 in 10.0 mi East 5.8 mph - N/A   Scattered Clouds
5:10 AM 71.6 °F - 66.2 °F 83% 30.10 in 10.0 mi East 11.5 mph - N/A   Light Drizzle
5:19 AM 73.4 °F - 66.2 °F 78% 30.10 in 10.0 mi East 9.2 mph - N/A   Mostly Cloudy
5:21 AM 73.4 °F - 66.2 °F 78% 30.10 in 10.0 mi East 9.2 mph - N/A   Light Drizzle
5:32 AM 71.6 °F - 66.2 °F 83% 30.11 in 7.0 mi NNE 6.9 mph - N/A Rain Light Rain
5:33 AM 71.6 °F - 66.2 °F 83% 30.11 in 7.0 mi NNE 5.8 mph - N/A Rain Light Rain
5:38 AM 71.6 °F - 66.2 °F 83% 30.11 in 10.0 mi NE 15.0 mph 21.9 mph N/A   Mostly Cloudy
5:51 AM 73.4 °F - 68.0 °F 83% 30.12 in 10.0 mi NE 11.5 mph 25.3 mph N/A   Light Drizzle
5:55 AM 72.7 °F - 67.3 °F 83% 30.12 in 10.0 mi NNE 6.9 mph - 0.01 in   Light Drizzle
6:14 AM 71.6 °F - 68.0 °F 88% 30.12 in 10.0 mi Calm Calm - N/A   Scattered Clouds
6:16 AM 71.6 °F - 68.0 °F 88% 30.12 in 9.0 mi Calm Calm - N/A   Light Drizzle
6:23 AM 71.6 °F - 68.0 °F 88% 30.12 in 6.0 mi Calm Calm - N/A   Light Drizzle
6:24 AM 71.6 °F - 68.0 °F 88% 30.12 in 6.0 mi Calm Calm - N/A   Light Drizzle
6:26 AM 71.6 °F - 68.0 °F 88% 30.13 in 6.0 mi Calm Calm - N/A   Light Drizzle
6:32 AM 71.6 °F - 68.0 °F 88% 30.12 in 6.0 mi Variable 6.9 mph - N/A   Light Drizzle
6:39 AM 71.6 °F - 68.0 °F 88% 30.12 in 10.0 mi East 6.9 mph - N/A   Mostly Cloudy
6:49 AM 71.6 °F - 68.0 °F 88% 30.13 in 10.0 mi ESE 8.1 mph - N/A   Mostly Cloudy
6:50 AM 71.6 °F - 68.0 °F 88% 30.13 in 10.0 mi East 9.2 mph - N/A   Mostly Cloudy
6:53 AM 71.6 °F - 68.0 °F 88% 30.13 in 9.0 mi East 10.4 mph - N/A   Mostly Cloudy
6:55 AM 71.2 °F - 67.6 °F 88% 30.14 in 9.0 mi East 12.7 mph - 0.01 in   Mostly Cloudy
7:07 AM 71.6 °F - 68.0 °F 88% 30.14 in 9.0 mi ESE 8.1 mph - N/A   Light Drizzle
7:08 AM 71.6 °F - 68.0 °F 88% 30.14 in 8.0 mi ESE 8.1 mph - N/A   Light Drizzle
7:17 AM 71.6 °F - 68.0 °F 88% 30.15 in 8.0 mi East 9.2 mph - N/A   Light Drizzle
7:21 AM 71.6 °F - 68.0 °F 88% 30.14 in 10.0 mi East 10.4 mph 17.3 mph N/A   Mostly Cloudy
7:23 AM 71.6 °F - 68.0 °F 88% 30.15 in 10.0 mi East 13.8 mph 17.3 mph N/A   Mostly Cloudy
7:25 AM 71.6 °F - 68.0 °F 88% 30.14 in 10.0 mi East 13.8 mph - N/A   Mostly Cloudy
7:28 AM 71.6 °F - 68.0 °F 88% 30.15 in 10.0 mi ESE 6.9 mph 17.3 mph N/A   Mostly Cloudy
7:34 AM 71.6 °F - 68.0 °F 88% 30.15 in 9.0 mi East 9.2 mph 19.6 mph N/A   Overcast
7:45 AM 71.6 °F - 68.0 °F 88% 30.15 in 10.0 mi ESE 8.1 mph - N/A   Mostly Cloudy
7:48 AM 71.6 °F - 68.0 °F 88% 30.15 in 9.0 mi ESE 8.1 mph - N/A   Light Drizzle
7:55 AM 71.6 °F - 67.8 °F 88% 30.15 in 10.0 mi Variable 5.8 mph - 0.00 in   Light Drizzle
8:10 AM 71.6 °F - 68.0 °F 88% 30.16 in 10.0 mi East 11.5 mph 19.6 mph N/A   Light Drizzle
8:11 AM 71.6 °F - 68.0 °F 88% 30.15 in 10.0 mi East 12.7 mph 19.6 mph N/A   Mostly Cloudy
8:15 AM 71.6 °F - 68.0 °F 88% 30.15 in 10.0 mi East 10.4 mph 19.6 mph N/A   Light Drizzle
8:24 AM 71.6 °F - 68.0 °F 88% 30.15 in 10.0 mi ENE 11.5 mph 17.3 mph N/A   Mostly Cloudy
8:30 AM 71.6 °F - 68.0 °F 88% 30.15 in 10.0 mi East 9.2 mph 17.3 mph N/A Rain Light Rain
8:49 AM 73.4 °F - 68.0 °F 83% 30.15 in 10.0 mi East 11.5 mph - N/A   Scattered Clouds
8:55 AM 74.3 °F - 68.5 °F 82% 30.15 in 10.0 mi East 11.5 mph 19.6 mph 0.00 in   Partly Cloudy
9:06 AM 75.2 °F - 68.0 °F 78% 30.15 in 10.0 mi ENE 13.8 mph - N/A Rain Light Rain
9:25 AM 75.2 °F - 68.0 °F 78% 30.15 in 10.0 mi East 16.1 mph - N/A   Clear
9:55 AM 75.9 °F - 65.5 °F 70% 30.15 in 10.0 mi East 16.1 mph 23.0 mph 0.00 in   Scattered Clouds
10:55 AM 80.8 °F 82.2 °F 63.7 °F 56% 30.14 in 10.0 mi East 16.1 mph 24.2 mph N/A   Clear
11:55 AM 80.4 °F 82.2 °F 64.9 °F 59% 30.14 in 10.0 mi ENE 16.1 mph 24.2 mph N/A   Mostly Cloudy
12:03 PM 80.6 °F 82.3 °F 64.4 °F 58% 30.14 in 10.0 mi ENE 15.0 mph 21.9 mph N/A   Light Drizzle
12:18 PM 78.8 °F - 64.4 °F 61% 30.14 in 10.0 mi ENE 16.1 mph - N/A   Mostly Cloudy
12:41 PM 80.6 °F 82.3 °F 64.4 °F 58% 30.13 in 10.0 mi ENE 11.5 mph 17.3 mph N/A   Overcast
12:55 PM 80.8 °F 82.2 °F 63.9 °F 56% 30.13 in 10.0 mi East 13.8 mph 19.6 mph 0.00 in   Mostly Cloudy
1:55 PM 79.0 °F - 64.9 °F 62% 30.12 in 10.0 mi ENE 11.5 mph - N/A   Overcast
2:55 PM 78.6 °F - 64.2 °F 61% 30.11 in 10.0 mi East 12.7 mph - N/A   Overcast
3:55 PM 77.7 °F - 65.3 °F 65% 30.10 in 10.0 mi Variable 5.8 mph - N/A   Overcast
4:55 PM 77.7 °F - 64.6 °F 64% 30.09 in 10.0 mi East 11.5 mph - N/A   Overcast
5:55 PM 77.4 °F - 64.4 °F 64% 30.10 in 10.0 mi ENE 12.7 mph - N/A   Mostly Cloudy
6:55 PM 75.6 °F - 64.0 °F 67% 30.11 in 10.0 mi NE 16.1 mph 19.6 mph N/A   Scattered Clouds
7:55 PM 74.8 °F - 63.9 °F 69% 30.11 in 10.0 mi NE 10.4 mph - N/A   Overcast
8:30 PM 75.2 °F - 64.4 °F 69% 30.12 in 10.0 mi ENE 11.5 mph - N/A Rain Light Rain
8:40 PM 75.2 °F - 64.4 °F 69% 30.12 in 10.0 mi NE 13.8 mph 19.6 mph N/A   Overcast
8:55 PM 75.0 °F - 63.9 °F 68% 30.12 in 10.0 mi ENE 13.8 mph 20.7 mph 0.00 in   Overcast
9:29 PM 75.2 °F - 64.4 °F 69% 30.12 in 10.0 mi NNE 10.4 mph - N/A   Light Drizzle
9:39 PM 75.2 °F - 64.4 °F 69% 30.12 in 10.0 mi NE 9.2 mph - N/A   Mostly Cloudy
9:55 PM 74.7 °F - 64.4 °F 70% 30.12 in 10.0 mi NE 15.0 mph - 0.00 in   Mostly Cloudy
10:49 PM 75.2 °F - 64.4 °F 69% 30.12 in 10.0 mi NE 8.1 mph - N/A Rain Light Rain
10:55 PM 74.1 °F - 64.9 °F 73% 30.13 in 9.0 mi NNE 8.1 mph - 0.00 in Rain Rain
11:17 PM 71.6 °F - 66.2 °F 83% 30.13 in 10.0 mi ENE 10.4 mph - N/A   Scattered Clouds
11:29 PM 71.6 °F - 66.2 °F 83% 30.12 in 10.0 mi East 5.8 mph - N/A   Light Drizzle
11:50 PM 71.6 °F - 66.2 °F 83% 30.12 in 10.0 mi NNE 10.4 mph - N/A   Scattered Clouds
11:55 PM 71.6 °F - 65.8 °F 82% 30.12 in 10.0 mi Variable 4.6 mph - 0.01 in   Scattered Clouds